contact:dominique.lefevre@mio.osupytheas.fr, maurice.libes@osupytheas.fr, didier.mallarino@osupytheas.fr
Project:EMSO http://www.emso-fr.org/EMSO-France
Depth: 2436.0 m
Title:EMSO Ligure Ouest : Data MII capteur MICROCAT
DateTime_Computer,Latitude,Longitude,Temperature,Conductivity,Pressure,DateTime_Instrument
DateTime_Computer,Latitude,Longitude,degC,S m-1,dbar,DateTime_Instrument
2021-01-01T00:01:06Z,42.805,6.029,13.2979,4.59987,2470.087,2021-1-01T02:02:07Z
2021-01-01T00:04:09Z,42.805,6.029,13.2983,4.59986,2470.063,2021-1-01T02:05:10Z
2021-01-01T00:07:13Z,42.805,6.029,13.2975,4.59987,2470.063,2021-1-01T02:08:13Z
2021-01-01T00:10:16Z,42.805,6.029,13.2983,4.59987,2470.1,2021-1-01T02:11:16Z
2021-01-01T00:13:19Z,42.805,6.029,13.2979,4.59987,2470.077,2021-1-01T02:14:19Z
2021-01-01T00:16:22Z,42.805,6.029,13.2983,4.59986,2470.063,2021-1-01T02:17:22Z
2021-01-01T00:19:25Z,42.805,6.029,13.2983,4.59989,2470.04,2021-1-01T02:20:25Z
2021-01-01T00:22:28Z,42.805,6.029,13.2982,4.59987,2470.063,2021-1-01T02:23:28Z
2021-01-01T00:25:31Z,42.805,6.029,13.2982,4.59988,2470.077,2021-1-01T02:26:31Z
2021-01-01T00:28:34Z,42.805,6.029,13.2983,4.59989,2470.1,2021-1-01T02:29:35Z
2021-01-01T00:31:37Z,42.805,6.029,13.2979,4.59986,2470.077,2021-1-01T02:32:38Z
2021-01-01T00:34:41Z,42.805,6.029,13.2986,4.59987,2470.1,2021-1-01T02:35:41Z
2021-01-01T00:37:44Z,42.805,6.029,13.2982,4.59987,2470.077,2021-1-01T02:38:44Z
2021-01-01T00:40:47Z,42.805,6.029,13.2982,4.59986,2470.04,2021-1-01T02:41:47Z
2021-01-01T00:43:50Z,42.805,6.029,13.2981,4.59988,2470.077,2021-1-01T02:44:50Z
2021-01-01T00:46:53Z,42.805,6.029,13.2982,4.59986,2470.03,2021-1-01T02:47:53Z
2021-01-01T00:49:56Z,42.805,6.029,13.2981,4.59987,2470.053,2021-1-01T02:50:56Z
2021-01-01T00:52:59Z,42.805,6.029,13.2983,4.59987,2470.063,2021-1-01T02:54:00Z
2021-01-01T00:56:02Z,42.805,6.029,13.2982,4.59989,2470.063,2021-1-01T02:57:03Z
2021-01-01T00:59:06Z,42.805,6.029,13.2986,4.59989,2470.063,2021-1-01T03:00:06Z
2021-01-01T01:02:09Z,42.805,6.029,13.2980,4.59991,2470.017,2021-1-01T03:03:09Z
2021-01-01T01:05:12Z,42.805,6.029,13.2985,4.59986,2470.077,2021-1-01T03:06:12Z
2021-01-01T01:08:15Z,42.805,6.029,13.2983,4.59989,2470.053,2021-1-01T03:09:15Z
2021-01-01T01:11:18Z,42.805,6.029,13.2986,4.59986,2470.04,2021-1-01T03:12:18Z
2021-01-01T01:14:21Z,42.805,6.029,13.2982,4.59990,2470.053,2021-1-01T03:15:21Z
2021-01-01T01:17:24Z,42.805,6.029,13.2983,4.59989,2470.017,2021-1-01T03:18:24Z
2021-01-01T01:20:27Z,42.805,6.029,13.2980,4.59990,2470.017,2021-1-01T03:21:28Z
2021-01-01T01:23:30Z,42.805,6.029,13.2982,4.59989,2470.04,2021-1-01T03:24:31Z
2021-01-01T01:26:34Z,42.805,6.029,13.2982,4.59988,2470.087,2021-1-01T03:27:34Z
2021-01-01T01:29:37Z,42.805,6.029,13.2986,4.59989,2470.063,2021-1-01T03:30:37Z
2021-01-01T01:32:40Z,42.805,6.029,13.2979,4.59988,2470.063,2021-1-01T03:33:40Z
2021-01-01T01:35:43Z,42.805,6.029,13.2982,4.59988,2470.017,2021-1-01T03:36:43Z
2021-01-01T01:38:46Z,42.805,6.029,13.2982,4.59987,2470.063,2021-1-01T03:39:46Z
2021-01-01T01:41:49Z,42.805,6.029,13.2982,4.59988,2470.04,2021-1-01T03:42:49Z
2021-01-01T01:44:52Z,42.805,6.029,13.2983,4.59988,2470.053,2021-1-01T03:45:53Z
2021-01-01T01:47:55Z,42.805,6.029,13.2984,4.59986,2470.017,2021-1-01T03:48:56Z
2021-01-01T01:50:59Z,42.805,6.029,13.2980,4.59990,2470.053,2021-1-01T03:51:59Z
2021-01-01T01:54:02Z,42.805,6.029,13.2982,4.59990,2470.063,2021-1-01T03:55:02Z
2021-01-01T01:57:05Z,42.805,6.029,13.2982,4.59990,2470.063,2021-1-01T03:58:05Z
2021-01-01T02:00:08Z,42.805,6.029,13.2984,4.59986,2470.017,2021-1-01T04:01:08Z
2021-01-01T02:03:11Z,42.805,6.029,13.2983,4.59988,2470.04,2021-1-01T04:04:11Z
2021-01-01T02:06:14Z,42.805,6.029,13.2982,4.59991,2470.053,2021-1-01T04:07:14Z
2021-01-01T02:09:17Z,42.805,6.029,13.2981,4.59991,2470.077,2021-1-01T04:10:17Z
2021-01-01T02:12:20Z,42.805,6.029,13.2983,4.59988,2470.03,2021-1-01T04:13:21Z
2021-01-01T02:15:23Z,42.805,6.029,13.2982,4.59990,2470.053,2021-1-01T04:16:24Z
2021-01-01T02:18:27Z,42.805,6.029,13.2983,4.59992,2470.04,2021-1-01T04:19:27Z
2021-01-01T02:21:30Z,42.805,6.029,13.2982,4.59991,2470.017,2021-1-01T04:22:30Z
2021-01-01T02:24:33Z,42.805,6.029,13.2982,4.59991,2470.077,2021-1-01T04:25:33Z
2021-01-01T02:27:36Z,42.805,6.029,13.2982,4.59991,2470.063,2021-1-01T04:28:36Z
2021-01-01T02:30:39Z,42.805,6.029,13.2980,4.59988,2470.04,2021-1-01T04:31:39Z
2021-01-01T02:33:42Z,42.805,6.029,13.2983,4.59990,2470.04,2021-1-01T04:34:42Z
2021-01-01T02:36:45Z,42.805,6.029,13.2980,4.59991,2470.017,2021-1-01T04:37:46Z
2021-01-01T02:39:48Z,42.805,6.029,13.2984,4.59991,2470.017,2021-1-01T04:40:49Z
2021-01-01T02:42:52Z,42.805,6.029,13.2986,4.59990,2470.017,2021-1-01T04:43:52Z
2021-01-01T02:45:55Z,42.805,6.029,13.2981,4.59989,2470.03,2021-1-01T04:46:55Z
2021-01-01T02:48:58Z,42.805,6.029,13.2985,4.59991,2470.04,2021-1-01T04:49:58Z
2021-01-01T02:52:01Z,42.805,6.029,13.2983,4.59990,2470.053,2021-1-01T04:53:01Z
2021-01-01T02:55:04Z,42.805,6.029,13.2983,4.59988,2470.017,2021-1-01T04:56:04Z
2021-01-01T02:58:07Z,42.805,6.029,13.2984,4.59991,2470.04,2021-1-01T04:59:07Z
2021-01-01T03:01:10Z,42.805,6.029,13.2983,4.59990,2470.053,2021-1-01T05:02:10Z
2021-01-01T03:04:13Z,42.805,6.029,13.2982,4.59989,2470.053,2021-1-01T05:05:14Z
2021-01-01T03:07:16Z,42.805,6.029,13.2982,4.59988,2470.03,2021-1-01T05:08:17Z
2021-01-01T03:10:20Z,42.805,6.029,13.2983,4.59986,2470.04,2021-1-01T05:11:20Z
2021-01-01T03:13:23Z,42.805,6.029,13.2980,4.59990,2470.03,2021-1-01T05:14:23Z
2021-01-01T03:16:26Z,42.805,6.029,13.2982,4.59989,2470.077,2021-1-01T05:17:26Z
2021-01-01T03:19:29Z,42.805,6.029,13.2982,4.59988,2470.017,2021-1-01T05:20:29Z
2021-01-01T03:22:32Z,42.805,6.029,13.2983,4.59989,2470.063,2021-1-01T05:23:32Z
2021-01-01T03:25:35Z,42.805,6.029,13.2986,4.59988,2470.063,2021-1-01T05:26:35Z
2021-01-01T03:28:38Z,42.805,6.029,13.2984,4.59989,2470.053,2021-1-01T05:29:39Z
2021-01-01T03:31:41Z,42.805,6.029,13.2986,4.59989,2470.077,2021-1-01T05:32:42Z
2021-01-01T03:34:44Z,42.805,6.029,13.2981,4.59983,2470.077,2021-1-01T05:35:45Z
2021-01-01T03:37:48Z,42.805,6.029,13.2980,4.59986,2470.04,2021-1-01T05:38:48Z
2021-01-01T03:40:51Z,42.805,6.029,13.2982,4.59988,2470.053,2021-1-01T05:41:51Z
2021-01-01T03:43:54Z,42.805,6.029,13.2983,4.59989,2470.04,2021-1-01T05:44:54Z
2021-01-01T03:46:57Z,42.805,6.029,13.2984,4.59986,2470.053,2021-1-01T05:47:57Z
2021-01-01T03:50:00Z,42.805,6.029,13.2984,4.59987,2470.077,2021-1-01T05:51:00Z
2021-01-01T03:53:03Z,42.805,6.029,13.2980,4.59986,2470.04,2021-1-01T05:54:03Z
2021-01-01T03:56:06Z,42.805,6.029,13.2983,4.59986,2470.077,2021-1-01T05:57:07Z
2021-01-01T03:59:09Z,42.805,6.029,13.2980,4.59985,2470.1,2021-1-01T06:00:10Z
2021-01-01T04:02:13Z,42.805,6.029,13.2983,4.59987,2470.063,2021-1-01T06:03:13Z
2021-01-01T04:05:16Z,42.805,6.029,13.2982,4.59986,2470.063,2021-1-01T06:06:16Z
2021-01-01T04:08:19Z,42.805,6.029,13.2982,4.59986,2470.04,2021-1-01T06:09:19Z
2021-01-01T04:11:22Z,42.805,6.029,13.2979,4.59984,2470.063,2021-1-01T06:12:22Z
2021-01-01T04:14:25Z,42.805,6.029,13.2980,4.59986,2470.087,2021-1-01T06:15:25Z
2021-01-01T04:17:28Z,42.805,6.029,13.2980,4.59986,2470.063,2021-1-01T06:18:28Z
2021-01-01T04:20:31Z,42.805,6.029,13.2981,4.59989,2470.1,2021-1-01T06:21:32Z
2021-01-01T04:23:34Z,42.805,6.029,13.2984,4.59987,2470.11,2021-1-01T06:24:35Z
2021-01-01T04:26:37Z,42.805,6.029,13.2983,4.59988,2470.1,2021-1-01T06:27:38Z
2021-01-01T04:29:41Z,42.805,6.029,13.2982,4.59987,2470.087,2021-1-01T06:30:41Z
2021-01-01T04:32:44Z,42.805,6.029,13.2982,4.59986,2470.063,2021-1-01T06:33:44Z
2021-01-01T04:35:47Z,42.805,6.029,13.2976,4.59986,2470.133,2021-1-01T06:36:47Z
2021-01-01T04:38:50Z,42.805,6.029,13.2982,4.59985,2470.049,2021-1-01T06:39:50Z
2021-01-01T04:41:53Z,42.805,6.029,13.2979,4.59991,2470.124,2021-1-01T06:42:53Z
2021-01-01T04:44:56Z,42.805,6.029,13.2982,4.59985,2470.1,2021-1-01T06:45:57Z
2021-01-01T04:47:59Z,42.805,6.029,13.2983,4.59986,2470.063,2021-1-01T06:49:00Z
2021-01-01T04:51:02Z,42.805,6.029,13.2978,4.59988,2470.11,2021-1-01T06:52:03Z
2021-01-01T04:54:06Z,42.805,6.029,13.2983,4.59988,2470.087,2021-1-01T06:55:06Z
2021-01-01T04:57:09Z,42.805,6.029,13.2980,4.59986,2470.124,2021-1-01T06:58:09Z
2021-01-01T05:00:12Z,42.805,6.029,13.2982,4.59986,2470.11,2021-1-01T07:01:12Z
2021-01-01T05:03:15Z,42.805,6.029,13.2979,4.59987,2470.124,2021-1-01T07:04:15Z
2021-01-01T05:06:18Z,42.805,6.029,13.2985,4.59986,2470.11,2021-1-01T07:07:18Z
2021-01-01T05:09:21Z,42.805,6.029,13.2979,4.59986,2470.133,2021-1-01T07:10:21Z
2021-01-01T05:12:24Z,42.805,6.029,13.2982,4.59986,2470.11,2021-1-01T07:13:25Z
2021-01-01T05:15:27Z,42.805,6.029,13.2983,4.59985,2470.11,2021-1-01T07:16:28Z
2021-01-01T05:18:30Z,42.805,6.029,13.2982,4.59984,2470.133,2021-1-01T07:19:31Z
2021-01-01T05:21:34Z,42.805,6.029,13.2976,4.59987,2470.11,2021-1-01T07:22:34Z
2021-01-01T05:24:37Z,42.805,6.029,13.2982,4.59988,2470.156,2021-1-01T07:25:37Z
2021-01-01T05:27:40Z,42.805,6.029,13.2979,4.59989,2470.171,2021-1-01T07:28:40Z
2021-01-01T05:30:43Z,42.805,6.029,13.2981,4.59987,2470.171,2021-1-01T07:31:43Z
2021-01-01T05:33:46Z,42.805,6.029,13.2980,4.59987,2470.133,2021-1-01T07:34:46Z
2021-01-01T05:36:49Z,42.805,6.029,13.2982,4.59988,2470.171,2021-1-01T07:37:49Z
2021-01-01T05:39:52Z,42.805,6.029,13.2986,4.59985,2470.171,2021-1-01T07:40:53Z
2021-01-01T05:42:55Z,42.805,6.029,13.2979,4.59985,2470.156,2021-1-01T07:43:56Z
2021-01-01T05:45:59Z,42.805,6.029,13.2982,4.59988,2470.18,2021-1-01T07:46:59Z
2021-01-01T05:49:02Z,42.805,6.029,13.2983,4.59985,2470.18,2021-1-01T07:50:02Z
2021-01-01T05:52:05Z,42.805,6.029,13.2982,4.59986,2470.171,2021-1-01T07:53:05Z
2021-01-01T05:55:08Z,42.805,6.029,13.2979,4.59987,2470.171,2021-1-01T07:56:08Z
2021-01-01T05:58:11Z,42.805,6.029,13.2980,4.59986,2470.217,2021-1-01T07:59:11Z
2021-01-01T06:01:14Z,42.805,6.029,13.2980,4.59986,2470.217,2021-1-01T08:02:14Z
2021-01-01T06:04:17Z,42.805,6.029,13.2982,4.59986,2470.18,2021-1-01T08:05:18Z
2021-01-01T06:07:20Z,42.805,6.029,13.2980,4.59987,2470.203,2021-1-01T08:08:21Z
2021-01-01T06:10:23Z,42.805,6.029,13.2976,4.59986,2470.203,2021-1-01T08:11:24Z
2021-01-01T06:13:27Z,42.805,6.029,13.2982,4.59990,2470.203,2021-1-01T08:14:27Z
2021-01-01T06:16:30Z,42.805,6.029,13.2983,4.59986,2470.227,2021-1-01T08:17:30Z
2021-01-01T06:19:33Z,42.805,6.029,13.2979,4.59988,2470.203,2021-1-01T08:20:33Z
2021-01-01T06:22:36Z,42.805,6.029,13.2983,4.59989,2470.217,2021-1-01T08:23:36Z
2021-01-01T06:25:39Z,42.805,6.029,13.2979,4.59989,2470.203,2021-1-01T08:26:39Z
2021-01-01T06:28:42Z,42.805,6.029,13.2979,4.59989,2470.25,2021-1-01T08:29:42Z
2021-01-01T06:31:45Z,42.805,6.029,13.2983,4.59988,2470.203,2021-1-01T08:32:46Z
2021-01-01T06:34:48Z,42.805,6.029,13.2984,4.59988,2470.25,2021-1-01T08:35:49Z
2021-01-01T06:37:52Z,42.805,6.029,13.2981,4.59989,2470.203,2021-1-01T08:38:52Z
2021-01-01T06:40:55Z,42.805,6.029,13.2982,4.59988,2470.24,2021-1-01T08:41:55Z
2021-01-01T06:43:58Z,42.805,6.029,13.2982,4.59986,2470.25,2021-1-01T08:44:58Z
2021-01-01T06:47:01Z,42.805,6.029,13.2979,4.59986,2470.227,2021-1-01T08:48:01Z
2021-01-01T06:50:04Z,42.805,6.029,13.2983,4.59987,2470.217,2021-1-01T08:51:04Z
2021-01-01T06:53:07Z,42.805,6.029,13.2981,4.59989,2470.264,2021-1-01T08:54:07Z
2021-01-01T06:56:10Z,42.805,6.029,13.2982,4.59988,2470.264,2021-1-01T08:57:11Z
2021-01-01T06:59:13Z,42.805,6.029,13.2981,4.59992,2470.24,2021-1-01T09:00:14Z
2021-01-01T07:02:16Z,42.805,6.029,13.2981,4.59989,2470.273,2021-1-01T09:03:17Z
2021-01-01T07:05:20Z,42.805,6.029,13.2982,4.59988,2470.273,2021-1-01T09:06:20Z
2021-01-01T07:08:23Z,42.805,6.029,13.2982,4.59989,2470.25,2021-1-01T09:09:23Z
2021-01-01T07:11:26Z,42.805,6.029,13.2979,4.59986,2470.264,2021-1-01T09:12:26Z
2021-01-01T07:14:29Z,42.805,6.029,13.2980,4.59991,2470.227,2021-1-01T09:15:29Z
2021-01-01T07:17:32Z,42.805,6.029,13.2983,4.59992,2470.273,2021-1-01T09:18:32Z
2021-01-01T07:20:35Z,42.805,6.029,13.2982,4.59989,2470.25,2021-1-01T09:21:35Z
2021-01-01T07:23:38Z,42.805,6.029,13.2977,4.59989,2470.273,2021-1-01T09:24:39Z
2021-01-01T07:26:41Z,42.805,6.029,13.2982,4.59991,2470.287,2021-1-01T09:27:42Z
2021-01-01T07:29:45Z,42.805,6.029,13.2982,4.59994,2470.334,2021-1-01T09:30:45Z
2021-01-01T07:32:48Z,42.805,6.029,13.2982,4.59990,2470.264,2021-1-01T09:33:48Z
2021-01-01T07:35:51Z,42.805,6.029,13.2980,4.59993,2470.273,2021-1-01T09:36:51Z
2021-01-01T07:38:54Z,42.805,6.029,13.2983,4.59991,2470.297,2021-1-01T09:39:54Z
2021-01-01T07:41:57Z,42.805,6.029,13.2979,4.59993,2470.273,2021-1-01T09:42:57Z
2021-01-01T07:45:00Z,42.805,6.029,13.2983,4.59991,2470.297,2021-1-01T09:46:00Z
2021-01-01T07:48:03Z,42.805,6.029,13.2984,4.59988,2470.297,2021-1-01T09:49:04Z
2021-01-01T07:51:06Z,42.805,6.029,13.2981,4.59990,2470.297,2021-1-01T09:52:07Z
2021-01-01T07:54:09Z,42.805,6.029,13.2980,4.59996,2470.283,2021-1-01T09:55:10Z
2021-01-01T07:57:13Z,42.805,6.029,13.2982,4.59990,2470.32,2021-1-01T09:58:13Z
2021-01-01T08:00:16Z,42.805,6.029,13.2982,4.59991,2470.297,2021-1-01T10:01:16Z
2021-01-01T08:03:19Z,42.805,6.029,13.2981,4.59992,2470.297,2021-1-01T10:04:19Z
2021-01-01T08:06:22Z,42.805,6.029,13.2980,4.59990,2470.283,2021-1-01T10:07:22Z
2021-01-01T08:09:25Z,42.805,6.029,13.2983,4.59991,2470.343,2021-1-01T10:10:25Z
2021-01-01T08:12:28Z,42.805,6.029,13.2981,4.59988,2470.297,2021-1-01T10:13:28Z
2021-01-01T08:15:31Z,42.805,6.029,13.2985,4.59991,2470.32,2021-1-01T10:16:32Z
2021-01-01T08:18:34Z,42.805,6.029,13.2983,4.59992,2470.297,2021-1-01T10:19:35Z
2021-01-01T08:21:38Z,42.805,6.029,13.2979,4.59996,2470.32,2021-1-01T10:22:38Z
2021-01-01T08:24:41Z,42.805,6.029,13.2976,4.59992,2470.32,2021-1-01T10:25:41Z
2021-01-01T08:27:44Z,42.805,6.029,13.2982,4.59990,2470.357,2021-1-01T10:28:44Z
2021-01-01T08:30:47Z,42.805,6.029,13.2979,4.59991,2470.25,2021-1-01T10:31:47Z
2021-01-01T08:33:50Z,42.805,6.029,13.2984,4.59995,2470.334,2021-1-01T10:34:50Z
2021-01-01T08:36:53Z,42.805,6.029,13.2982,4.59991,2470.343,2021-1-01T10:37:53Z
2021-01-01T08:39:56Z,42.805,6.029,13.2983,4.59993,2470.334,2021-1-01T10:40:57Z
2021-01-01T08:42:59Z,42.805,6.029,13.2982,4.59994,2470.31,2021-1-01T10:44:00Z
2021-01-01T08:46:03Z,42.805,6.029,13.2979,4.59993,2470.297,2021-1-01T10:47:03Z
2021-01-01T08:49:06Z,42.805,6.029,13.2979,4.59991,2470.31,2021-1-01T10:50:06Z
2021-01-01T08:52:09Z,42.805,6.029,13.2983,4.59995,2470.31,2021-1-01T10:53:09Z
2021-01-01T08:55:12Z,42.805,6.029,13.2982,4.59992,2470.297,2021-1-01T10:56:12Z
2021-01-01T08:58:15Z,42.805,6.029,13.2980,4.59994,2470.334,2021-1-01T10:59:15Z
2021-01-01T09:01:18Z,42.805,6.029,13.2979,4.59996,2470.32,2021-1-01T11:02:18Z
2021-01-01T09:04:21Z,42.805,6.029,13.2983,4.59991,2470.366,2021-1-01T11:05:22Z
2021-01-01T09:07:24Z,42.805,6.029,13.2983,4.59995,2470.343,2021-1-01T11:08:25Z
2021-01-01T09:10:28Z,42.805,6.029,13.2982,4.59991,2470.32,2021-1-01T11:11:28Z
2021-01-01T09:13:31Z,42.805,6.029,13.2979,4.59993,2470.32,2021-1-01T11:14:31Z
2021-01-01T09:16:34Z,42.805,6.029,13.2986,4.59992,2470.32,2021-1-01T11:17:34Z
2021-01-01T09:19:37Z,42.805,6.029,13.2986,4.59991,2470.32,2021-1-01T11:20:37Z
2021-01-01T09:22:40Z,42.805,6.029,13.2982,4.59991,2470.343,2021-1-01T11:23:40Z
2021-01-01T09:25:43Z,42.805,6.029,13.2983,4.59992,2470.357,2021-1-01T11:26:43Z
2021-01-01T09:28:46Z,42.805,6.029,13.2984,4.59991,2470.334,2021-1-01T11:29:47Z
2021-01-01T09:31:49Z,42.805,6.029,13.2980,4.59991,2470.32,2021-1-01T11:32:50Z
2021-01-01T09:34:53Z,42.805,6.029,13.2982,4.59991,2470.32,2021-1-01T11:35:53Z
2021-01-01T09:37:56Z,42.805,6.029,13.2986,4.59994,2470.31,2021-1-01T11:38:56Z
2021-01-01T09:40:59Z,42.805,6.029,13.2981,4.59991,2470.343,2021-1-01T11:41:59Z
2021-01-01T09:44:02Z,42.805,6.029,13.2984,4.59991,2470.32,2021-1-01T11:45:02Z
2021-01-01T09:47:05Z,42.805,6.029,13.2983,4.59991,2470.31,2021-1-01T11:48:05Z
2021-01-01T09:50:08Z,42.805,6.029,13.2983,4.59996,2470.31,2021-1-01T11:51:08Z
2021-01-01T09:53:11Z,42.805,6.029,13.2983,4.59994,2470.334,2021-1-01T11:54:12Z
2021-01-01T09:56:14Z,42.805,6.029,13.2986,4.59992,2470.31,2021-1-01T11:57:15Z
2021-01-01T09:59:18Z,42.805,6.029,13.2984,4.59991,2470.32,2021-1-01T12:00:18Z
2021-01-01T10:02:21Z,42.805,6.029,13.2984,4.59991,2470.334,2021-1-01T12:03:21Z
2021-01-01T10:05:24Z,42.805,6.029,13.2983,4.59991,2470.343,2021-1-01T12:06:24Z
2021-01-01T10:08:27Z,42.805,6.029,13.2986,4.59992,2470.297,2021-1-01T12:09:27Z
2021-01-01T10:11:30Z,42.805,6.029,13.2979,4.59991,2470.31,2021-1-01T12:12:30Z
2021-01-01T10:14:33Z,42.805,6.029,13.2983,4.59992,2470.334,2021-1-01T12:15:33Z
2021-01-01T10:17:36Z,42.805,6.029,13.2985,4.59991,2470.31,2021-1-01T12:18:37Z
2021-01-01T10:20:39Z,42.805,6.029,13.2984,4.59993,2470.297,2021-1-01T12:21:40Z
2021-01-01T10:23:42Z,42.805,6.029,13.2980,4.59990,2470.297,2021-1-01T12:24:43Z
2021-01-01T10:26:46Z,42.805,6.029,13.2982,4.59991,2470.297,2021-1-01T12:27:46Z
2021-01-01T10:29:49Z,42.805,6.029,13.2985,4.59990,2470.273,2021-1-01T12:30:49Z
2021-01-01T10:32:52Z,42.805,6.029,13.2982,4.59990,2470.273,2021-1-01T12:33:52Z
2021-01-01T10:35:55Z,42.805,6.029,13.2981,4.59989,2470.273,2021-1-01T12:36:55Z
2021-01-01T10:38:58Z,42.805,6.029,13.2983,4.59991,2470.287,2021-1-01T12:39:58Z
2021-01-01T10:42:01Z,42.805,6.029,13.2981,4.59991,2470.273,2021-1-01T12:43:01Z
2021-01-01T10:45:04Z,42.805,6.029,13.2982,4.59991,2470.297,2021-1-01T12:46:05Z
2021-01-01T10:48:07Z,42.805,6.029,13.2985,4.59991,2470.273,2021-1-01T12:49:08Z
2021-01-01T10:51:11Z,42.805,6.029,13.2982,4.59990,2470.297,2021-1-01T12:52:11Z
2021-01-01T10:54:14Z,42.805,6.029,13.2983,4.59991,2470.297,2021-1-01T12:55:14Z
2021-01-01T10:57:17Z,42.805,6.029,13.2990,4.59991,2470.25,2021-1-01T12:58:17Z
2021-01-01T11:00:20Z,42.805,6.029,13.2985,4.59991,2470.227,2021-1-01T13:01:20Z
2021-01-01T11:03:23Z,42.805,6.029,13.2984,4.59991,2470.283,2021-1-01T13:04:23Z
2021-01-01T11:06:26Z,42.805,6.029,13.2983,4.59990,2470.287,2021-1-01T13:07:26Z
2021-01-01T11:09:29Z,42.805,6.029,13.2982,4.59989,2470.264,2021-1-01T13:10:30Z
2021-01-01T11:12:32Z,42.805,6.029,13.2986,4.59990,2470.264,2021-1-01T13:13:33Z
2021-01-01T11:15:36Z,42.805,6.029,13.2983,4.59990,2470.297,2021-1-01T13:16:36Z
2021-01-01T11:18:39Z,42.805,6.029,13.2982,4.59990,2470.287,2021-1-01T13:19:39Z
2021-01-01T11:21:42Z,42.805,6.029,13.2981,4.59990,2470.25,2021-1-01T13:22:42Z
2021-01-01T11:24:45Z,42.805,6.029,13.2980,4.59988,2470.273,2021-1-01T13:25:45Z
2021-01-01T11:27:48Z,42.805,6.029,13.2982,4.59989,2470.25,2021-1-01T13:28:48Z
2021-01-01T11:30:51Z,42.805,6.029,13.2980,4.59989,2470.25,2021-1-01T13:31:51Z
2021-01-01T11:33:54Z,42.805,6.029,13.2981,4.59991,2470.273,2021-1-01T13:34:55Z
2021-01-01T11:36:57Z,42.805,6.029,13.2979,4.59991,2470.273,2021-1-01T13:37:58Z
2021-01-01T11:40:01Z,42.805,6.029,13.2983,4.59990,2470.25,2021-1-01T13:41:01Z
2021-01-01T11:43:04Z,42.805,6.029,13.2983,4.59989,2470.264,2021-1-01T13:44:04Z
2021-01-01T11:46:07Z,42.805,6.029,13.2983,4.59989,2470.264,2021-1-01T13:47:07Z
2021-01-01T11:49:10Z,42.805,6.029,13.2980,4.59989,2470.25,2021-1-01T13:50:10Z
2021-01-01T11:52:13Z,42.805,6.029,13.2984,4.59989,2470.25,2021-1-01T13:53:13Z
2021-01-01T11:55:16Z,42.805,6.029,13.2983,4.59988,2470.25,2021-1-01T13:56:16Z
2021-01-01T11:58:19Z,42.805,6.029,13.2983,4.59991,2470.227,2021-1-01T13:59:20Z
2021-01-01T12:01:22Z,42.805,6.029,13.2983,4.59991,2470.25,2021-1-01T14:02:23Z
2021-01-01T12:04:25Z,42.805,6.029,13.2979,4.59990,2470.25,2021-1-01T14:05:26Z
2021-01-01T12:07:29Z,42.805,6.029,13.2985,4.59991,2470.264,2021-1-01T14:08:29Z
2021-01-01T12:10:32Z,42.805,6.029,13.2984,4.59989,2470.227,2021-1-01T14:11:32Z
2021-01-01T12:13:35Z,42.805,6.029,13.2984,4.59989,2470.24,2021-1-01T14:14:35Z
2021-01-01T12:16:38Z,42.805,6.029,13.2983,4.59991,2470.217,2021-1-01T14:17:38Z
2021-01-01T12:19:41Z,42.805,6.029,13.2983,4.59992,2470.203,2021-1-01T14:20:41Z
2021-01-01T12:22:44Z,42.805,6.029,13.2984,4.59989,2470.227,2021-1-01T14:23:44Z
2021-01-01T12:25:47Z,42.805,6.029,13.2986,4.59987,2470.25,2021-1-01T14:26:48Z
2021-01-01T12:28:50Z,42.805,6.029,13.2981,4.59989,2470.203,2021-1-01T14:29:51Z
2021-01-01T12:31:54Z,42.805,6.029,13.2979,4.59987,2470.227,2021-1-01T14:32:54Z
2021-01-01T12:34:57Z,42.805,6.029,13.2980,4.59988,2470.287,2021-1-01T14:35:57Z
2021-01-01T12:38:00Z,42.805,6.029,13.2983,4.59990,2470.227,2021-1-01T14:39:00Z
2021-01-01T12:41:03Z,42.805,6.029,13.2980,4.59988,2470.227,2021-1-01T14:42:03Z
2021-01-01T12:44:06Z,42.805,6.029,13.2982,4.59990,2470.18,2021-1-01T14:45:06Z
2021-01-01T12:47:09Z,42.805,6.029,13.2983,4.59990,2470.217,2021-1-01T14:48:09Z
2021-01-01T12:50:12Z,42.805,6.029,13.2984,4.59988,2470.217,2021-1-01T14:51:13Z
2021-01-01T12:53:15Z,42.805,6.029,13.2986,4.59990,2470.217,2021-1-01T14:54:16Z
2021-01-01T12:56:19Z,42.805,6.029,13.2984,4.59989,2470.227,2021-1-01T14:57:19Z
2021-01-01T12:59:22Z,42.805,6.029,13.2983,4.59988,2470.189,2021-1-01T15:00:22Z
2021-01-01T13:02:25Z,42.805,6.029,13.2984,4.59986,2470.18,2021-1-01T15:03:25Z
2021-01-01T13:05:28Z,42.805,6.029,13.2982,4.59989,2470.156,2021-1-01T15:06:28Z
2021-01-01T13:08:31Z,42.805,6.029,13.2982,4.59988,2470.156,2021-1-01T15:09:31Z
2021-01-01T13:11:34Z,42.805,6.029,13.2982,4.59987,2470.18,2021-1-01T15:12:34Z
2021-01-01T13:14:37Z,42.805,6.029,13.2984,4.59986,2470.194,2021-1-01T15:15:38Z
2021-01-01T13:17:40Z,42.805,6.029,13.2982,4.59989,2470.194,2021-1-01T15:18:41Z
2021-01-01T13:20:44Z,42.805,6.029,13.2982,4.59986,2470.217,2021-1-01T15:21:44Z
2021-01-01T13:23:47Z,42.805,6.029,13.2984,4.59988,2470.203,2021-1-01T15:24:47Z
2021-01-01T13:26:50Z,42.805,6.029,13.2982,4.59988,2470.203,2021-1-01T15:27:50Z
2021-01-01T13:29:53Z,42.805,6.029,13.2983,4.59987,2470.171,2021-1-01T15:30:53Z
2021-01-01T13:32:56Z,42.805,6.029,13.2983,4.59988,2470.217,2021-1-01T15:33:56Z
2021-01-01T13:35:59Z,42.805,6.029,13.2980,4.59986,2470.18,2021-1-01T15:36:59Z
2021-01-01T13:39:02Z,42.805,6.029,13.2983,4.59988,2470.194,2021-1-01T15:40:03Z
2021-01-01T13:42:05Z,42.805,6.029,13.2985,4.59989,2470.18,2021-1-01T15:43:06Z
2021-01-01T13:45:09Z,42.805,6.029,13.2982,4.59988,2470.203,2021-1-01T15:46:09Z
2021-01-01T13:48:12Z,42.805,6.029,13.2981,4.59988,2470.156,2021-1-01T15:49:12Z
2021-01-01T13:51:15Z,42.805,6.029,13.2982,4.59988,2470.194,2021-1-01T15:52:15Z
2021-01-01T13:54:18Z,42.805,6.029,13.2983,4.59987,2470.18,2021-1-01T15:55:18Z
2021-01-01T13:57:21Z,42.805,6.029,13.2985,4.59987,2470.156,2021-1-01T15:58:21Z
2021-01-01T14:00:24Z,42.805,6.029,13.2982,4.59986,2470.18,2021-1-01T16:01:24Z
2021-01-01T14:03:27Z,42.805,6.029,13.2986,4.59989,2470.156,2021-1-01T16:04:28Z
2021-01-01T14:06:30Z,42.805,6.029,13.2986,4.59987,2470.133,2021-1-01T16:07:31Z
2021-01-01T14:09:33Z,42.805,6.029,13.2982,4.59986,2470.18,2021-1-01T16:10:34Z
2021-01-01T14:12:37Z,42.805,6.029,13.2982,4.59987,2470.171,2021-1-01T16:13:37Z
2021-01-01T14:15:40Z,42.805,6.029,13.2979,4.59988,2470.171,2021-1-01T16:16:40Z
2021-01-01T14:18:43Z,42.805,6.029,13.2983,4.59986,2470.18,2021-1-01T16:19:43Z
2021-01-01T14:21:46Z,42.805,6.029,13.2982,4.59987,2470.133,2021-1-01T16:22:46Z
2021-01-01T14:24:49Z,42.805,6.029,13.2981,4.59987,2470.194,2021-1-01T16:25:49Z
2021-01-01T14:27:52Z,42.805,6.029,13.2983,4.59987,2470.156,2021-1-01T16:28:53Z
2021-01-01T14:30:55Z,42.805,6.029,13.2983,4.59986,2470.133,2021-1-01T16:31:56Z
2021-01-01T14:33:58Z,42.805,6.029,13.2983,4.59987,2470.156,2021-1-01T16:34:59Z
2021-01-01T14:37:02Z,42.805,6.029,13.2979,4.59989,2470.171,2021-1-01T16:38:02Z
2021-01-01T14:40:05Z,42.805,6.029,13.2985,4.59988,2470.156,2021-1-01T16:41:05Z
2021-01-01T14:43:08Z,42.805,6.029,13.2980,4.59990,2470.156,2021-1-01T16:44:08Z
2021-01-01T14:46:11Z,42.805,6.029,13.2983,4.59987,2470.11,2021-1-01T16:47:11Z
2021-01-01T14:49:14Z,42.805,6.029,13.2982,4.59987,2470.156,2021-1-01T16:50:14Z
2021-01-01T14:52:17Z,42.805,6.029,13.2982,4.59986,2470.171,2021-1-01T16:53:18Z
2021-01-01T14:55:20Z,42.805,6.029,13.2982,4.59987,2470.171,2021-1-01T16:56:21Z
2021-01-01T14:58:23Z,42.805,6.029,13.2982,4.59988,2470.156,2021-1-01T16:59:24Z
2021-01-01T15:01:27Z,42.805,6.029,13.2983,4.59987,2470.18,2021-1-01T17:02:27Z
2021-01-01T15:04:30Z,42.805,6.029,13.2981,4.59987,2470.171,2021-1-01T17:05:30Z
2021-01-01T15:07:33Z,42.805,6.029,13.2983,4.59987,2470.171,2021-1-01T17:08:33Z
2021-01-01T15:10:36Z,42.805,6.029,13.2983,4.59987,2470.147,2021-1-01T17:11:36Z
2021-01-01T15:13:39Z,42.805,6.029,13.2983,4.59986,2470.156,2021-1-01T17:14:39Z